Total_Precipitation_Accumulation
1.25 1.30 1.27 1.35 1.45 1.69 1.89 1.85 1.65 1.60 1.60 1.59 1.56 1.62 1.78 1.90 2.02 2.14 2.21 2.20 2.20 2.33 2.27 2.24 2.34 2.43 2.69 2.66 2.70 2.69 2.61 2.54 2.49 2.25 1.88 1.85 2.08 2.19 2.08 1.86 1.70 1.70 1.54
1.05 1.12 1.19 1.21 1.30 1.41 1.53 1.57 1.48 1.36 1.31 1.36 1.41 1.41 1.49 1.69 1.84 1.86 1.90 1.90 1.93 2.04 2.10 2.06 2.11 2.20 2.32 2.52 2.63 2.61 2.63 2.59 2.58 2.51 2.16 1.96 1.93 2.05 2.11 2.07 1.80 1.66 1.58
0.98 1.07 1.17 1.15 1.15 1.15 1.17 1.13 1.15 1.14 1.17 1.19 1.30 1.36 1.43 1.52 1.68 1.70 1.73 1.68 1.68 1.73 1.86 1.93 2.00 2.06 2.10 2.22 2.19 2.28 2.42 2.58 2.68 2.57 2.40 2.18 2.02 1.99 2.07 2.04 1.97 1.99 1.73
1.07 1.16 1.22 1.22 1.22 1.20 1.16 1.13 1.14 1.14 1.17 1.25 1.41 1.47 1.48 1.51 1.51 1.56 1.64 1.64 1.52 1.46 1.52 1.57 1.71 1.84 1.90 2.08 2.05 2.05 2.22 2.47 2.75 2.75 2.59 2.35 2.21 2.15 2.11 2.08 2.13 2.11 2.00
0.96 1.10 1.17 1.25 1.31 1.22 1.10 1.04 1.10 1.08 1.07 1.19 1.34 1.47 1.50 1.50 1.46 1.55 1.62 1.65 1.59 1.42 1.34 1.36 1.43 1.58 1.86 1.97 1.92 2.14 2.29 2.35 2.50 2.65 2.63 2.55 2.39 2.24 2.11 2.00 2.07 2.12 2.15
0.88 0.98 1.17 1.27 1.21 1.14 1.03 0.99 1.00 0.98 0.97 1.05 1.18 1.36 1.48 1.44 1.84 1.83 1.62 1.59 1.56 1.42 1.30 1.28 1.26 1.27 1.49 1.81 1.97 2.10 2.23 2.31 2.35 2.39 2.43 2.35 2.29 2.23 2.31 2.29 2.18 2.09 2.05
0.81 0.96 1.16 1.19 1.11 1.03 1.06 1.06 1.00 0.97 0.99 1.05 1.10 1.10 1.21 1.51 1.58 1.33 1.35 1.35 1.47 1.39 1.26 1.18 1.08 1.06 1.23 1.32 1.49 1.61 1.80 2.11 2.32 2.36 2.25 2.10 2.19 2.17 2.24 2.29 2.21 2.12 2.01
0.71 0.84 1.01 1.06 1.04 1.06 1.05 1.02 0.93 0.87 0.87 0.92 0.94 0.99 1.06 1.21 1.24 1.16 1.24 1.14 1.28 1.28 1.18 1.14 1.12 1.10 1.15 1.20 1.36 1.50 1.49 1.56 1.80 1.87 1.88 1.91 1.97 2.14 2.23 2.27 2.34 2.28 2.23
0.59 0.71 0.81 0.83 0.90 0.93 0.90 0.92 0.87 0.78 0.78 0.80 0.84 0.91 0.99 0.99 1.03 1.03 1.09 1.17 1.31 1.27 1.14 1.13 1.12 1.09 1.29 1.39 1.36 1.44 1.50 1.46 1.59 1.77 1.98 1.97 1.89 1.90 2.01 2.08 2.22 2.27 2.25
0.52 0.63 0.71 0.73 0.74 0.77 0.83 0.86 0.86 0.81 0.77 0.77 0.80 0.82 0.87 0.93 1.07 0.94 1.03 1.19 1.30 1.32 1.27 1.17 1.29 1.27 1.40 1.40 1.32 1.46 1.51 1.34 1.27 1.38 1.55 1.59 1.51 1.53 1.74 1.74 1.95 2.13 2.05
0.42 0.53 0.60 0.63 0.69 0.78 0.86 0.88 0.91 0.88 0.83 0.82 0.85 0.87 0.83 0.92 1.08 1.06 1.08 1.11 1.30 1.34 1.36 1.29 1.16 1.28 1.28 1.34 1.38 1.42 1.62 1.49 1.34 1.40 1.51 1.49 1.38 1.36 1.43 1.50 1.63 1.91 2.00
0.32 0.39 0.53 0.61 0.68 0.75 0.86 0.90 0.89 0.90 0.91 0.92 0.91 0.92 0.89 0.89 0.96 1.03 1.06 1.10 1.20 1.22 1.30 1.28 1.23 1.34 1.23 1.19 1.19 1.32 1.62 1.56 1.38 1.41 1.45 1.45 1.37 1.27 1.32 1.35 1.43 1.54 1.68
0.25 0.31 0.39 0.46 0.50 0.59 0.70 0.81 0.86 0.85 0.86 0.87 0.93 1.01 1.03 0.95 1.02 1.15 1.02 1.00 1.05 1.06 1.08 1.21 1.20 1.19 1.12 1.06 1.13 1.24 1.37 1.49 1.49 1.42 1.32 1.29 1.28 1.27 1.32 1.29 1.30 1.39 1.42
0.26 0.28 0.31 0.35 0.37 0.44 0.59 0.66 0.70 0.74 0.79 0.86 0.94 1.05 1.16 1.11 1.04 1.02 0.97 0.96 0.98 0.92 0.87 0.89 0.91 0.95 0.95 0.95 1.01 1.07 1.18 1.36 1.49 1.39 1.26 1.28 1.30 1.33 1.36 1.28 1.28 1.35 1.38
0.26 0.27 0.28 0.30 0.34 0.38 0.47 0.59 0.67 0.72 0.79 0.84 0.92 1.06 1.14 1.15 1.17 1.27 1.23 1.14 1.09 1.06 1.00 0.90 0.84 0.87 0.95 1.02 1.03 1.02 1.09 1.22 1.32 1.30 1.25 1.23 1.28 1.34 1.33 1.26 1.24 1.28 1.31
0.32 0.30 0.31 0.33 0.36 0.39 0.44 0.54 0.61 0.63 0.65 0.70 0.75 0.81 0.88 0.96 1.02 1.04 1.07 1.07 1.03 1.01 1.08 1.06 1.03 1.07 1.08 1.07 1.08 1.02 0.98 1.03 1.16 1.24 1.24 1.19 1.17 1.22 1.28 1.29 1.27 1.28 1.28
0.42 0.40 0.38 0.38 0.42 0.47 0.48 0.51 0.57 0.59 0.61 0.63 0.65 0.71 0.76 0.82 0.83 0.86 0.92 0.97 0.99 0.97 1.05 1.03 0.97 0.91 0.91 0.90 0.92 0.93 0.93 0.93 0.99 1.11 1.16 1.18 1.15 1.18 1.27 1.31 1.31 1.36 1.35
0.34 0.37 0.40 0.43 0.43 0.47 0.54 0.61 0.67 0.72 0.66 0.60 0.60 0.67 0.68 0.69 0.72 0.75 0.82 0.85 0.80 0.78 0.80 0.87 0.85 0.81 0.76 0.78 0.78 0.76 0.79 0.83 0.87 0.93 1.02 1.08 1.13 1.18 1.23 1.28 1.31 1.31 1.34
0.30 0.36 0.45 0.49 0.48 0.48 0.59 0.70 0.76 0.78 0.74 0.65 0.56 0.56 0.60 0.58 0.61 0.67 0.72 0.73 0.72 0.64 0.64 0.71 0.76 0.77 0.71 0.66 0.66 0.65 0.66 0.69 0.73 0.80 0.88 0.94 1.00 1.06 1.11 1.17 1.22 1.29 1.31
0.33 0.40 0.49 0.55 0.52 0.53 0.58 0.61 0.63 0.68 0.68 0.63 0.61 0.63 0.63 0.57 0.55 0.58 0.61 0.63 0.66 0.64 0.64 0.68 0.71 0.73 0.70 0.68 0.66 0.63 0.65 0.68 0.70 0.75 0.83 0.93 0.99 1.00 0.99 1.03 1.13 1.19 1.17
0.42 0.42 0.44 0.51 0.51 0.50 0.51 0.51 0.55 0.59 0.57 0.57 0.58 0.63 0.66 0.60 0.58 0.59 0.59 0.60 0.60 0.63 0.66 0.67 0.69 0.74 0.73 0.71 0.70 0.70 0.69 0.69 0.68 0.73 0.77 0.81 0.86 0.90 0.94 0.97 0.99 1.04 1.10
0.44 0.45 0.43 0.50 0.53 0.48 0.47 0.49 0.54 0.56 0.56 0.55 0.54 0.56 0.59 0.54 0.55 0.57 0.59 0.63 0.64 0.66 0.69 0.68 0.69 0.73 0.78 0.77 0.75 0.76 0.77 0.75 0.74 0.75 0.79 0.79 0.81 0.84 0.87 0.89 0.92 0.96 1.00
0.47 0.46 0.46 0.49 0.50 0.49 0.47 0.49 0.55 0.59 0.58 0.55 0.55 0.56 0.56 0.54 0.53 0.54 0.60 0.68 0.73 0.73 0.70 0.69 0.71 0.77 0.80 0.80 0.77 0.77 0.77 0.74 0.73 0.74 0.81 0.84 0.85 0.88 0.90 0.92 0.92 0.97 1.02
0.49 0.50 0.53 0.55 0.54 0.57 0.60 0.59 0.58 0.58 0.61 0.60 0.57 0.57 0.56 0.54 0.56 0.57 0.62 0.69 0.73 0.73 0.72 0.70 0.71 0.76 0.81 0.82 0.82 0.78 0.75 0.75 0.73 0.73 0.79 0.87 0.89 0.87 0.88 0.91 0.94 0.96 1.02
0.49 0.50 0.53 0.57 0.58 0.59 0.64 0.64 0.61 0.61 0.63 0.67 0.69 0.66 0.62 0.59 0.59 0.60 0.63 0.68 0.70 0.69 0.68 0.69 0.73 0.76 0.78 0.77 0.77 0.79 0.90 0.91 0.84 0.81 0.80 0.86 0.91 0.90 0.93 0.95 0.99 1.03 1.08
0.49 0.51 0.56 0.63 0.65 0.64 0.66 0.68 0.66 0.64 0.66 0.69 0.73 0.76 0.75 0.70 0.65 0.64 0.66 0.70 0.70 0.69 0.68 0.67 0.68 0.71 0.74 0.75 0.76 0.82 0.87 0.82 0.82 0.87 0.85 0.86 0.93 0.98 1.02 1.06 1.07 1.14 1.22